Weather History for KCDN - December, 2012

Change the Weather History Date:

Saturday, December 29, 2012

  Actual Average (KSSC) Record (KSSC)
Temperature  
Mean Temperature 46 °F -  
Max Temperature 53 °F 54 °F 75 °F (1996)
Min Temperature 39 °F 32 °F 24 °F (2000)
Degree Days  
Heating Degree Days 19    
Moisture  
Dew Point 39 °F    
Average Humidity 80    
Maximum Humidity 100    
Minimum Humidity 57    
Precipitation  
Precipitation 1.10 in - - ()
Sea Level Pressure  
Sea Level Pressure 29.86 in    
Wind  
Wind Speed 7 mph (WNW)    
Max Wind Speed 20 mph    
Max Gust Speed 26 mph    
Visibility 8 miles    
Events Rain    
Averages and records for this station are not official NWS values.
T = Trace of Precipitation, MM = Missing Value Source: NWS Daily Summary

Daily Weather History Graph

Daily Weather History Graph

Search for Another Location

Airport or City:

Trip Planner

Search our weather history database for the weather conditions in past years. The results will help you decide how hot, cold, wet, or windy it might be!

Date:

Astronomy

Dec. 29, 2012 Rise Set
Actual Time 7:27 AM EST 5:21 PM EST
Civil Twilight 7:00 AM EST 5:49 PM EST
Nautical Twilight 6:28 AM EST 6:20 PM EST
Astronomical Twilight 5:58 AM EST 6:51 PM EST
Moon 6:48 PM EST 8:04 AM EST
Length of Visible Light 10h 49m
Length of Day
9h 53m
Full, 98% of the Moon is Illuminated
Dec 29
Full
Jan 4
Last Quarter
Jan 11
New
Jan 18
First Quarter
Jan 26
Full

Hourly Weather History & Observations

Time (EST) Temp. Windchill Dew Point Humidity Pressure Visibility Wind Dir Wind Speed Gust Speed Precip Events Conditions
12:15 AM 42.8 °F 39.3 °F 37.4 °F 81% 29.93 in 10.0 mi ENE 5.8 mph - 0.00 in   Partly Cloudy
12:35 AM 42.8 °F 40.1 °F 37.4 °F 81% 29.94 in 10.0 mi NNE 4.6 mph - 0.00 in   Partly Cloudy
12:55 AM 42.8 °F 40.1 °F 37.4 °F 81% 29.93 in 10.0 mi NNE 4.6 mph - 0.00 in   Light Drizzle
1:15 AM 42.8 °F 41.1 °F 37.4 °F 81% 29.94 in 10.0 mi North 3.5 mph - 0.00 in   Mostly Cloudy
1:35 AM 42.8 °F 41.1 °F 37.4 °F 81% 29.94 in 9.0 mi NNW 3.5 mph - 0.00 in Rain Light Rain
1:55 AM 42.8 °F 40.1 °F 39.2 °F 87% 29.97 in 3.0 mi WNW 4.6 mph - 0.04 in Rain Light Rain
2:15 AM 42.8 °F 39.3 °F 39.2 °F 87% 29.92 in 3.0 mi NE 5.8 mph - 0.06 in Rain Heavy Rain
2:35 AM 41.0 °F 36.4 °F 39.2 °F 93% 29.89 in 4.0 mi ENE 6.9 mph - 0.12 in Rain Rain
2:55 AM 41.0 °F 35.8 °F 39.2 °F 93% 29.88 in 5.0 mi NNE 8.1 mph - 0.13 in Rain Light Rain
3:15 AM 41.0 °F 36.4 °F 39.2 °F 93% 29.89 in 5.0 mi NNE 6.9 mph - 0.01 in Rain Rain
3:35 AM 41.0 °F 35.2 °F 39.2 °F 93% 29.90 in 3.0 mi NNW 9.2 mph - 0.06 in Rain Light Rain
3:55 AM 41.0 °F 34.7 °F 39.2 °F 93% 29.84 in 2.0 mi NNE 10.4 mph - 0.21 in Rain Heavy Rain
4:15 AM 41.0 °F 36.4 °F 39.2 °F 93% 29.86 in 3.0 mi North 6.9 mph - 0.14 in Rain Light Rain
4:35 AM 41.0 °F 36.4 °F 39.2 °F 93% 29.85 in 3.0 mi NNE 6.9 mph - 0.33 in Rain Heavy Rain
4:55 AM 41.0 °F 36.4 °F 39.2 °F 93% 29.83 in 2.5 mi North 6.9 mph - 0.40 in Rain Heavy Rain
5:15 AM 41.0 °F 37.1 °F 39.2 °F 93% 29.82 in 3.0 mi NE 5.8 mph - 0.12 in Rain Heavy Rain
5:35 AM 41.0 °F 33.9 °F 39.2 °F 93% 29.76 in 2.5 mi ESE 12.7 mph - 0.31 in Rain Light Rain
5:55 AM 41.0 °F - 41.0 °F 100% 29.76 in 4.0 mi Calm Calm - 0.32 in   Overcast
6:15 AM 42.8 °F - 41.0 °F 93% 29.75 in 3.0 mi Calm Calm - 0.00 in   Overcast
6:35 AM 42.8 °F 40.1 °F 41.0 °F 93% 29.74 in 5.0 mi ESE 4.6 mph - 0.00 in   Overcast
6:55 AM 42.8 °F - 42.8 °F 100% 29.76 in 5.0 mi Calm Calm - 0.00 in   Overcast
7:15 AM 42.8 °F 38.6 °F 42.8 °F 100% 29.78 in 4.0 mi WNW 6.9 mph - 0.00 in   Overcast
7:35 AM 42.8 °F 40.1 °F 42.8 °F 100% 29.78 in 3.0 mi WNW 4.6 mph - 0.00 in   Overcast
7:55 AM 42.8 °F 41.1 °F 42.8 °F 100% 29.79 in 1.8 mi West 3.5 mph - 0.00 in   Overcast
8:15 AM 42.8 °F 40.1 °F 42.8 °F 100% 29.79 in 2.0 mi WNW 4.6 mph - 0.00 in   Overcast
8:35 AM 42.8 °F 39.3 °F 42.8 °F 100% 29.80 in 1.2 mi West 5.8 mph - 0.00 in   Overcast
8:55 AM 42.8 °F 38.6 °F 42.8 °F 100% 29.81 in 1.8 mi WNW 6.9 mph - 0.00 in   Overcast
9:15 AM 42.8 °F 39.3 °F 42.8 °F 100% 29.82 in 2.5 mi WNW 5.8 mph - 0.00 in   Overcast
9:35 AM 42.8 °F 39.3 °F 42.8 °F 100% 29.81 in 2.5 mi WNW 5.8 mph - 0.00 in   Overcast
9:55 AM 42.8 °F 37.5 °F 42.8 °F 100% 29.82 in 8.0 mi NW 9.2 mph - 0.00 in   Overcast
10:15 AM 44.6 °F 42.2 °F 44.6 °F 100% 29.82 in 8.0 mi West 4.6 mph - 0.00 in   Overcast
10:35 AM 44.6 °F 40.7 °F 44.6 °F 100% 29.82 in 10.0 mi West 6.9 mph - 0.00 in   Overcast
10:55 AM 44.6 °F 40.7 °F 44.6 °F 100% 29.81 in 10.0 mi West 6.9 mph - 0.00 in   Overcast
11:15 AM 46.4 °F 42.4 °F 44.6 °F 93% 29.81 in 10.0 mi WSW 8.1 mph - 0.00 in   Overcast
11:35 AM 46.4 °F 41.5 °F 44.6 °F 93% 29.80 in 10.0 mi WSW 10.4 mph 16.1 mph 0.00 in   Overcast
11:55 AM 48.2 °F - 44.6 °F 87% 29.79 in 10.0 mi WSW 13.8 mph 18.4 mph 0.00 in   Overcast
12:15 PM 48.2 °F - 42.8 °F 82% 29.78 in 10.0 mi West 11.5 mph 19.6 mph 0.00 in   Overcast
12:35 PM 48.2 °F - 42.8 °F 82% 29.78 in 10.0 mi West 13.8 mph 20.7 mph 0.00 in   Overcast
12:55 PM 48.2 °F - 42.8 °F 82% 29.77 in 10.0 mi West 10.4 mph - 0.00 in   Overcast
1:15 PM 51.8 °F - 42.8 °F 71% 29.77 in 10.0 mi WNW 10.4 mph - 0.00 in   Mostly Cloudy
1:35 PM 53.6 °F - 42.8 °F 67% 29.77 in 10.0 mi West 13.8 mph 18.4 mph 0.00 in   Mostly Cloudy
1:55 PM 53.6 °F - 42.8 °F 67% 29.77 in 10.0 mi West 11.5 mph 19.6 mph 0.00 in   Scattered Clouds
2:15 PM 53.6 °F - 42.8 °F 67% 29.77 in 10.0 mi West 12.7 mph 17.3 mph 0.00 in   Scattered Clouds
2:35 PM 53.6 °F - 41.0 °F 62% 29.77 in 10.0 mi West 15.0 mph 20.7 mph 0.00 in   Mostly Cloudy
2:55 PM 53.6 °F - 41.0 °F 62% 29.78 in 10.0 mi West 13.8 mph 17.3 mph 0.00 in   Mostly Cloudy
3:15 PM 53.6 °F - 39.2 °F 58% 29.78 in 10.0 mi West 10.4 mph - 0.00 in   Mostly Cloudy
3:35 PM 53.6 °F - 39.2 °F 58% 29.79 in 10.0 mi West 13.8 mph 19.6 mph 0.00 in   Mostly Cloudy
3:55 PM 53.6 °F - 39.2 °F 58% 29.80 in 10.0 mi West 10.4 mph - 0.00 in   Overcast
4:15 PM 53.6 °F - 41.0 °F 62% 29.80 in 10.0 mi West 11.5 mph - 0.00 in   Overcast
4:35 PM 53.6 °F - 39.2 °F 58% 29.81 in 10.0 mi West 10.4 mph - 0.00 in   Overcast
4:55 PM 51.8 °F - 39.2 °F 62% 29.82 in 10.0 mi West 10.4 mph 16.1 mph 0.00 in   Mostly Cloudy
5:15 PM 51.8 °F - 39.2 °F 62% 29.82 in 10.0 mi West 11.5 mph - 0.00 in   Mostly Cloudy
5:35 PM 50.0 °F - 39.2 °F 66% 29.83 in 10.0 mi WSW 8.1 mph - 0.00 in   Mostly Cloudy
5:55 PM 50.0 °F - 39.2 °F 66% 29.85 in 10.0 mi WSW 13.8 mph 18.4 mph 0.00 in   Scattered Clouds
6:15 PM 48.2 °F - 39.2 °F 71% 29.86 in 10.0 mi WSW 17.3 mph 23.0 mph 0.00 in   Scattered Clouds
6:35 PM 48.2 °F - 37.4 °F 66% 29.87 in 10.0 mi West 19.6 mph 26.5 mph 0.00 in   Scattered Clouds
6:55 PM 48.2 °F - 37.4 °F 66% 29.88 in 10.0 mi WSW 13.8 mph 24.2 mph 0.00 in   Mostly Cloudy
7:15 PM 46.4 °F 40.4 °F 37.4 °F 71% 29.90 in 10.0 mi WSW 13.8 mph 21.9 mph 0.00 in   Overcast
7:35 PM 46.4 °F 40.7 °F 35.6 °F 66% 29.91 in 10.0 mi West 12.7 mph - 0.00 in   Overcast
7:55 PM 46.4 °F 41.1 °F 35.6 °F 66% 29.92 in 10.0 mi West 11.5 mph 17.3 mph 0.00 in   Mostly Cloudy
8:15 PM 44.6 °F 39.2 °F 35.6 °F 71% 29.93 in 10.0 mi West 10.4 mph - 0.00 in   Scattered Clouds
8:35 PM 44.6 °F 39.2 °F 35.6 °F 71% 29.94 in 10.0 mi West 10.4 mph - 0.00 in   Partly Cloudy
8:55 PM 44.6 °F 40.2 °F 35.6 °F 71% 29.96 in 10.0 mi West 8.1 mph - 0.00 in   Partly Cloudy
9:15 PM 44.6 °F 38.8 °F 33.8 °F 66% 29.97 in 10.0 mi West 11.5 mph 17.3 mph 0.00 in   Mostly Cloudy
9:35 PM 44.6 °F 39.2 °F 32.0 °F 61% 29.98 in 10.0 mi WNW 10.4 mph 16.1 mph 0.00 in   Mostly Cloudy
9:55 PM 44.6 °F 38.8 °F 30.2 °F 57% 29.99 in 10.0 mi WNW 11.5 mph 20.7 mph 0.00 in   Partly Cloudy
10:15 PM 42.8 °F 37.5 °F 30.2 °F 61% 30.00 in 10.0 mi WNW 9.2 mph - 0.00 in   Clear
10:35 PM 42.8 °F 37.5 °F 30.2 °F 61% 30.02 in 10.0 mi WNW 9.2 mph - 0.00 in   Clear
10:55 PM 41.0 °F 37.1 °F 32.0 °F 70% 30.03 in 10.0 mi West 5.8 mph - 0.00 in   Clear
11:15 PM 39.2 °F 34.2 °F 33.8 °F 81% 30.04 in 10.0 mi West 6.9 mph - 0.00 in   Clear
11:35 PM 39.2 °F 35.0 °F 32.0 °F 75% 30.06 in 10.0 mi West 5.8 mph - 0.00 in   Clear
11:55 PM 39.2 °F 33.6 °F 30.2 °F 70% 30.06 in 10.0 mi WNW 8.1 mph - 0.00 in   Clear